Flag Weather past 2 weeks in Astrakhan, Russia

Now
16 °F

Clear.


Feels Like: 3 °F
Forecast: 19 / 33 °F
Wind: 10 mph from Northeast

Location: Astrakhan

Current Time: Nov 26, 2014 at 1:02:53 AM

Latest Report: Nov 26, 2014 at 12:30 AM


Visibility: 10 mi

Pressure: 30.51 "Hg

Humidity: 86%

Dew point: 12 °F

Location of AstrakhanLocation

Historic Weather in Astrakhan — Graph

°F

Astrakhan temperature yesterday

Maximum temperature yesterday: 27 °F (at 11:00 AM)
Minimum temperature yesterday: 16 °F (at 10:30 PM)
Average temperature yesterday: 21 °F

Past Weeks' High & Low Weather Summary

 TemperatureHumidityPressure
High55 °F (Nov 12, 12:00 PM)100% (Nov 11, 2:30 AM)30.69 "Hg (Nov 11, 2:30 AM)
Low16 °F (Nov 23, 10:30 PM)36% (Nov 13, 12:30 PM)30.07 "Hg (Nov 23, 3:30 AM)
Average32 °F77%30.40 "Hg
* Reported Nov 10 11:00 PM — Nov 25 11:30 PM, Astrakhan, Weather by CustomWeather, © 2014

Note: Actual official high and low records may vary slightly from our data, if they occured in-between our weather recording intervals... More about our weather records

Advertising

Astrakhan weather history for previous 24 hours

 ConditionsComfort  
Time TempWeatherWind HumidityBarometerVisibility
11:30 PM
Nov 25
16 °FClear.8 mph86%30.54 "Hg10 mi
11:00 PM16 °FClear.8 mph86%30.54 "Hg10 mi
10:30 PM16 °FClear.10 mph86%30.57 "Hg10 mi
10:00 PM18 °FClear.13 mph79%30.57 "Hg10 mi
9:30 PM18 °FClear.10 mph79%30.57 "Hg10 mi
9:00 PM18 °FClear.13 mph79%30.57 "Hg10 mi
8:30 PM18 °FClear.13 mph79%30.57 "Hg10 mi
8:00 PM18 °FClear.13 mph79%30.57 "Hg10 mi
7:30 PM19 °FClear.10 mph73%30.60 "Hg10 mi
7:00 PM19 °FClear.13 mph73%30.60 "Hg10 mi
6:30 PM19 °FClear.13 mph73%30.60 "Hg10 mi
6:00 PM21 °FClear.13 mph68%30.60 "Hg10 mi
5:30 PM21 °FClear.13 mph68%30.60 "Hg10 mi
5:00 PM21 °FSunny.13 mph74%30.60 "Hg10 mi
4:30 PM23 °FSunny.17 mph68%30.60 "Hg10 mi
4:00 PM23 °FSunny.20 mph63%30.60 "Hg10 mi
3:30 PM25 °FSunny.20 mph63%30.63 "Hg10 mi
3:00 PM27 °FSunny.20 mph59%30.63 "Hg10 mi
2:30 PM27 °FSunny.20 mph54%30.63 "Hg10 mi
2:00 PM27 °FSunny.20 mph54%30.63 "Hg10 mi
1:00 PM27 °FSunny.17 mph64%30.63 "Hg10 mi
12:30 PM27 °FSunny.20 mph59%30.66 "Hg10 mi
12:00 PM27 °FSunny.17 mph64%30.66 "Hg10 mi
11:30 AM27 °FSunny.20 mph69%30.66 "Hg10 mi
11:00 AM27 °FSunny.17 mph69%30.66 "Hg10 mi
10:30 AM23 °FScattered clouds.10 mph74%30.66 "HgN/A
10:00 AM21 °FPartly sunny.10 mph80%30.69 "HgN/A
9:30 AM21 °FOvercast.13 mph80%30.69 "HgN/A
9:00 AM21 °FOvercast.10 mph80%30.69 "HgN/A
8:30 AM21 °FOvercast.13 mph80%30.69 "HgN/A
8:00 AM21 °FOvercast.15 mph80%30.69 "HgN/A
7:30 AM21 °FOvercast.13 mph80%30.69 "HgN/A
6:30 AM21 °FOvercast.10 mph86%30.69 "HgN/A
6:00 AM21 °FOvercast.10 mph80%30.69 "HgN/A
5:30 AM21 °FOvercast.13 mph80%30.69 "HgN/A
5:00 AM21 °FOvercast.13 mph80%30.69 "HgN/A
4:30 AM21 °FOvercast.10 mph80%30.69 "HgN/A
4:00 AM21 °FOvercast.10 mph80%30.69 "HgN/A
3:30 AM21 °FOvercast.10 mph80%30.69 "HgN/A
2:30 AM21 °FOvercast.10 mph80%30.69 "HgN/A
2:00 AM21 °FOvercast.10 mph80%30.69 "HgN/A
1:30 AM21 °FOvercast.10 mph80%30.69 "HgN/A
1:00 AM21 °FOvercast.10 mph80%30.69 "HgN/A
Weather by CustomWeather, © 2014

See weather overviewHow to use our weather pages